Temperature
18 19 19 18 18 18 18 18 18 18 18 18 18 18 18 18 18 18 18 18 18 18 18 18 18 18 18 18 18 18 18 18 18 18 18 18 18 18 18 18 18 18 18
18 18 18 18 18 18 18 18 18 18 18 18 18 18 18 18 18 18 18 18 18 18 18 18 18 18 18 18 18 18 18 18 18 18 18 18 18 18 18 18 18 18 18
18 18 18 18 18 18 18 18 18 18 18 18 18 18 18 18 18 18 18 18 18 18 18 18 18 18 18 18 18 18 18 18 18 18 18 18 18 18 18 18 18 18 18
18 18 18 18 18 18 18 18 18 18 18 18 18 18 18 18 18 18 18 18 18 17 17 18 18 18 18 18 18 18 18 18 18 18 18 18 17 18 18 18 18 18 18
18 18 18 18 18 18 18 18 18 18 18 18 18 18 17 17 17 17 17 17 17 17 17 17 17 17 18 18 18 18 18 18 18 18 18 17 18 18 18 18 18 18 18
18 18 18 18 18 18 18 18 18 18 17 17 17 17 17 17 17 17 17 17 17 17 17 17 17 17 17 18 18 18 18 18 18 18 17 17 18 18 18 18 18 18 18
18 18 18 18 18 18 17 17 17 17 17 17 17 17 17 17 17 17 17 16 17 17 17 17 17 17 17 17 18 18 18 18 18 18 17 17 18 18 18 18 18 18 18
18 18 18 18 18 18 17 17 17 17 17 17 17 17 17 17 17 16 16 16 16 16 16 17 17 17 17 17 17 18 18 18 18 17 17 17 17 18 18 18 18 18 18
18 18 18 18 18 18 17 17 17 17 17 17 17 17 17 16 16 16 16 16 16 16 16 16 16 17 17 17 17 17 18 18 18 18 17 17 17 18 18 18 18 18 18
19 18 18 18 18 18 17 17 17 17 17 17 17 16 16 16 16 16 16 16 16 16 16 16 16 16 17 17 17 17 17 18 18 17 17 17 17 18 18 18 18 18 18
19 19 18 18 18 18 17 17 17 17 17 17 16 16 16 16 16 16 16 16 16 16 16 16 16 16 16 17 17 17 17 17 17 17 17 17 17 17 18 18 18 18 18
19 19 19 18 18 18 18 18 17 17 17 17 16 16 16 16 16 16 16 16 16 16 16 16 16 16 16 17 17 17 17 17 17 17 17 17 17 17 18 18 18 18 18
19 19 19 19 19 18 18 18 17 17 17 17 17 16 16 16 16 16 16 16 15 15 15 15 16 16 16 16 17 17 17 17 17 17 17 17 17 17 17 17 17 17 17
19 19 19 19 19 18 18 18 18 17 17 17 17 16 16 16 16 16 16 16 15 15 15 15 15 16 16 16 16 17 17 17 17 17 17 17 17 17 17 17 17 17 17
19 19 19 19 19 18 18 18 18 17 17 17 16 16 16 16 16 16 16 16 15 15 15 15 15 16 16 16 16 16 16 17 17 17 17 17 17 17 17 17 17 17 17
20 19 19 19 19 19 18 18 18 17 17 17 16 16 16 16 16 15 15 15 15 15 15 15 15 15 16 16 16 16 16 16 16 17 17 17 17 17 17 17 17 17 17
20 19 19 19 19 18 18 18 17 17 17 16 16 16 16 16 16 15 15 15 15 15 15 15 15 15 15 15 16 16 16 16 16 16 16 16 17 17 17 17 17 17 17
20 20 19 19 18 18 18 17 17 17 17 16 16 16 16 15 15 15 15 15 15 15 15 15 15 15 15 15 15 16 16 16 16 16 16 16 16 16 17 17 17 17 17
20 20 19 19 18 18 18 17 17 17 16 16 16 15 15 15 15 15 15 14 14 14 14 14 15 15 15 15 15 15 16 16 16 16 16 16 16 16 16 16 17 17 17
20 20 19 19 18 18 17 17 17 16 16 16 15 15 15 15 15 14 14 14 14 14 14 14 14 15 15 15 15 15 16 16 16 16 16 16 16 16 16 16 16 17 17
20 20 19 19 18 17 17 17 16 16 16 16 15 15 15 14 14 14 14 14 14 14 14 14 14 14 15 15 15 15 15 16 16 16 16 16 16 16 16 16 16 16 16
20 20 19 19 18 17 17 17 16 16 16 16 15 15 15 14 14 14 14 14 14 14 14 14 14 14 14 15 15 15 15 15 15 16 16 16 16 16 16 16 16 16 16
20 20 19 19 18 17 17 16 16 16 16 16 15 15 15 14 14 14 14 14 14 14 14 14 14 14 14 14 15 15 15 15 15 15 16 16 16 15 16 16 16 16 16
20 19 19 19 18 17 17 17 16 16 16 16 15 15 15 15 14 14 14 14 14 14 14 14 14 14 14 14 14 15 15 15 15 15 15 15 15 15 15 16 16 16 16
20 19 19 18 18 17 17 17 16 16 16 16 15 15 15 15 15 14 14 14 14 14 14 14 14 14 14 14 14 14 15 15 15 15 15 15 15 15 15 15 15 15 15
20 19 19 18 18 17 17 17 17 16 16 16 15 15 15 15 15 15 14 14 14 14 14 14 14 14 14 14 14 14 14 15 15 15 15 15 15 15 15 15 15 15 15
Wind_Speed
10 12 13 13 12 12 12 12 12 11 11 10 10 9 8 7 7 8 8 8 8 8 7 7 7 7 7 8 7 7 7 7 6 6 6 5 5 5 6 7 7 6 7
13 14 14 13 13 13 12 12 12 12 10 10 10 9 8 7 7 7 7 7 7 7 7 7 7 7 7 7 7 7 7 6 6 6 6 4 2 4 6 7 8 6 7
14 14 13 13 13 13 12 12 12 11 10 10 9 8 8 7 7 6 6 6 6 6 6 6 6 6 6 6 6 6 6 6 7 8 8 5 0 4 5 6 7 7 6
14 14 13 13 13 12 12 12 12 11 11 10 9 8 7 7 7 6 5 5 5 6 6 6 6 6 6 6 6 6 6 7 8 9 6 3 4 6 6 6 7 7 6
14 15 14 14 13 13 12 12 11 11 10 10 9 8 7 7 7 6 6 5 4 5 5 5 5 6 6 6 6 6 6 7 9 8 5 3 6 6 6 6 6 6 6
14 15 14 14 13 13 12 11 11 10 10 9 8 8 7 7 6 6 5 5 5 5 5 5 5 5 5 5 5 6 6 8 9 6 4 3 6 5 6 6 6 6 6
13 14 14 13 13 12 11 11 10 9 9 8 7 7 6 6 5 4 4 5 5 5 4 4 4 4 5 5 5 5 6 8 8 6 2 3 6 6 5 5 5 5 5
13 12 14 14 13 12 11 10 9 8 7 6 6 5 4 3 3 3 3 4 4 4 4 5 4 4 4 4 4 5 6 8 8 6 2 4 7 5 5 4 4 4 5
10 11 11 13 12 12 11 10 8 7 5 4 3 1 0 1 1 0 2 3 3 4 4 4 5 4 4 4 5 5 6 7 8 6 3 5 7 6 4 3 3 4 4
8 8 8 10 11 11 10 9 8 6 5 4 4 4 4 5 5 4 3 2 1 3 4 4 5 5 5 6 7 7 7 7 6 4 1 6 8 6 4 3 3 3 4
7 6 6 7 7 8 10 10 9 8 7 6 7 7 7 6 4 6 4 4 2 3 4 5 6 7 8 9 10 9 7 6 4 0 4 6 6 5 4 3 3 3 4
6 5 5 5 4 4 5 8 7 6 6 5 3 4 3 2 2 1 4 5 5 7 7 8 10 10 9 8 8 9 6 5 2 1 5 7 6 4 3 2 3 3 4
6 5 5 4 3 2 2 3 1 2 3 1 3 2 2 3 3 1 1 3 4 6 4 5 8 7 5 3 3 4 3 1 1 2 6 7 5 4 2 2 2 3 3
7 5 4 3 3 2 3 2 1 1 1 2 3 5 3 1 2 2 1 2 2 2 1 2 3 3 4 4 2 1 0 1 1 3 5 6 5 3 3 2 3 4 4
8 6 4 2 3 3 3 0 2 2 2 3 4 5 4 1 2 2 1 1 2 3 2 2 3 3 3 3 3 3 2 1 0 2 4 5 5 4 3 3 3 5 5
8 6 4 2 3 3 2 2 2 2 1 3 3 5 4 3 2 2 2 2 2 3 3 2 2 2 2 2 2 2 2 2 0 2 4 5 5 5 4 3 4 5 6
8 7 5 3 2 3 4 4 2 2 3 3 3 5 6 4 3 3 3 3 3 4 4 3 3 2 2 2 1 2 1 2 1 1 3 4 5 5 5 4 5 6 6
7 7 6 4 3 4 5 3 2 3 3 2 3 4 6 7 6 3 3 3 3 4 3 3 2 3 2 3 2 1 1 1 2 1 2 4 4 5 5 5 5 6 7
6 7 7 5 4 5 4 1 2 3 2 2 4 4 6 8 7 4 2 3 4 3 3 4 3 3 3 3 3 2 1 0 0 1 1 2 3 5 6 7 7 7 7
6 6 6 6 5 5 3 2 3 3 2 2 3 4 5 6 7 5 2 3 4 3 3 3 4 3 2 2 4 3 1 1 1 0 1 1 2 3 5 6 7 6 6
5 5 6 6 5 5 3 2 2 2 1 2 2 4 3 5 6 4 3 3 3 3 3 4 3 4 3 2 2 3 2 0 1 1 1 1 1 3 4 4 5 5 5
6 5 6 6 6 5 3 2 2 1 1 2 2 2 4 5 5 5 4 3 3 2 3 4 3 2 3 2 1 1 1 2 2 1 2 1 0 1 2 3 4 5 5
6 5 5 5 7 6 4 2 2 2 1 1 0 1 1 2 2 3 4 4 4 2 2 3 2 2 2 3 1 1 0 0 1 1 1 2 1 1 1 2 3 4 6
6 6 5 5 6 6 4 3 2 1 0 0 0 1 1 1 1 1 2 3 4 3 2 3 2 2 2 2 2 1 1 1 1 1 2 1 1 1 1 1 2 3 5
7 6 5 5 5 5 4 4 2 0 0 1 1 1 1 0 0 0 1 2 3 2 2 2 2 2 1 1 2 2 2 1 1 1 1 1 1 1 1 2 2 2 4
6 6 5 5 5 4 3 4 4 2 1 0 1 1 2 1 1 0 0 1 2 2 2 2 2 2 1 1 1 1 1 1 1 0 1 1 0 0 1 1 2 2 3
Wind_Direction
109 111 111 105 101 97 93 90 89 88 85 83 81 80 75 70 64 62 62 58 52 48 41 35 35 32 27 23 22 19 17 14 11 7 2 8 21 24 22 19 20 30 40
114 113 111 106 101 98 94 90 87 85 83 82 80 78 75 70 67 64 57 53 48 44 40 32 27 24 21 19 18 13 10 3 355 345 333 334 12 31 29 30 33 31 33
113 115 112 106 102 98 94 90 88 84 82 80 78 76 74 71 69 62 53 44 40 39 34 25 19 14 11 13 11 7 0 350 338 329 319 303 57 62 47 37 32 30 40
114 113 109 106 102 99 95 91 88 85 81 78 74 71 71 70 66 61 52 43 38 34 27 22 15 6 3 5 5 360 350 339 328 324 319 346 65 72 53 39 32 36 44
110 108 109 108 104 100 97 93 89 86 83 78 74 69 69 68 64 60 54 48 37 31 29 24 17 7 360 359 358 352 342 330 321 317 317 38 78 76 57 42 36 39 44
109 109 111 109 106 103 99 94 90 87 83 78 71 65 61 60 58 54 47 41 33 28 28 23 14 6 2 357 352 346 337 328 315 307 327 68 93 82 62 47 43 41 48
113 115 118 114 111 107 102 97 92 87 83 76 69 61 55 53 52 48 40 36 32 26 19 11 2 359 358 355 347 339 331 323 299 294 312 86 103 91 65 48 44 43 47
119 120 124 125 121 117 111 104 98 92 86 79 72 64 55 49 47 44 45 39 29 20 9 1 348 339 339 338 330 322 319 314 316 322 322 107 110 96 72 49 42 46 48
123 128 135 138 135 130 124 118 113 109 105 105 107 114 244 271 262 147 87 43 16 358 344 340 334 323 314 307 301 299 301 302 303 298 318 103 111 98 79 58 48 52 53
123 127 136 140 141 145 142 138 140 144 153 172 193 219 238 252 237 219 186 128 352 325 315 316 314 305 290 283 278 279 285 291 273 282 38 105 107 98 81 69 68 70 62
116 123 129 130 135 150 153 151 167 176 189 203 211 229 242 249 220 197 152 152 216 260 276 280 283 281 277 270 261 260 267 258 262 284 82 104 107 99 86 78 85 92 77
127 121 114 120 133 140 129 146 178 174 178 206 185 199 232 294 339 63 149 195 225 245 257 255 263 270 265 252 243 238 247 248 259 130 116 121 111 98 91 91 106 110 92
110 97 101 107 107 108 119 130 154 150 153 117 40 30 16 12 339 70 157 187 235 246 253 252 255 256 259 247 211 211 237 259 113 92 114 119 111 103 106 112 135 132 107
111 103 100 101 113 104 87 106 161 85 80 77 28 8 38 33 333 18 359 31 346 337 328 296 281 293 299 309 299 251 262 36 83 106 129 130 124 127 136 141 148 150 130
125 123 112 111 108 102 90 36 84 70 27 60 45 353 19 34 349 7 341 21 339 339 337 312 297 307 313 322 327 347 11 349 136 116 133 147 148 150 156 163 158 156 152
132 133 126 111 97 111 117 92 75 83 98 61 43 340 10 35 355 10 2 5 343 336 333 314 298 312 309 311 328 330 325 304 161 141 157 167 169 165 171 178 169 161 158
143 138 128 114 86 74 71 53 61 57 60 59 55 359 14 22 3 34 11 355 337 345 344 339 338 327 324 321 309 295 301 323 323 210 171 174 174 171 173 177 178 168 164
143 133 127 116 95 77 68 46 38 56 52 53 57 26 10 14 21 33 4 344 343 354 349 328 322 333 338 335 333 309 277 279 293 273 192 174 170 163 167 178 174 166 161
132 131 132 120 103 84 76 84 52 58 53 45 52 40 15 6 13 28 355 335 359 5 345 333 351 345 338 329 303 278 258 204 290 292 280 152 156 155 163 177 171 162 166
137 134 125 114 104 99 101 69 64 52 25 57 57 52 23 3 16 10 342 1 6 3 348 334 329 329 315 310 317 323 282 182 149 331 315 104 143 162 155 162 160 160 166
140 130 118 119 114 107 89 64 66 57 4 49 61 54 22 19 20 357 350 357 6 5 337 329 339 336 324 320 332 324 322 123 148 148 116 62 145 137 139 154 159 155 154
143 132 124 123 120 109 103 97 105 78 356 68 53 52 24 33 20 353 358 358 359 342 342 340 346 343 324 326 318 331 348 358 349 134 136 152 96 118 141 155 152 146 142
140 131 129 131 122 117 126 102 77 69 346 33 61 80 40 46 26 354 352 348 335 347 351 327 330 345 320 322 352 73 80 305 333 342 99 132 139 133 137 120 131 140 140
141 135 143 139 132 132 137 124 125 132 274 42 59 122 233 176 147 20 351 342 336 352 347 326 9 337 321 319 323 318 224 174 156 344 345 19 113 131 127 122 96 101 119
145 144 148 140 134 134 138 139 180 125 343 37 36 14 293 204 81 97 354 328 322 337 348 335 341 333 333 328 324 334 332 324 244 169 255 310 356 52 113 106 107 96 118
133 137 144 139 131 133 156 170 176 153 136 1 306 300 302 270 235 9 353 332 328 343 346 340 335 319 325 328 328 323 317 325 320 313 227 229 244 338 98 118 136 141 133
Height
1503 1503 1505 1506 1507 1508 1510 1511 1512 1513 1514 1515 1516 1516 1517 1518 1518 1519 1520 1520 1521 1521 1522 1522 1522 1523 1523 1523 1523 1523 1523 1523 1523 1523 1523 1523 1523 1523 1522 1521 1521 1519 1519
1503 1504 1506 1507 1508 1509 1511 1512 1513 1514 1515 1516 1516 1517 1518 1518 1519 1519 1520 1520 1521 1522 1522 1522 1523 1523 1523 1523 1523 1524 1524 1524 1524 1524 1524 1524 1524 1523 1522 1522 1521 1520 1519
1504 1506 1507 1508 1509 1511 1512 1513 1514 1515 1516 1517 1517 1518 1518 1519 1519 1520 1520 1521 1521 1522 1522 1522 1523 1523 1523 1523 1523 1524 1524 1524 1524 1525 1525 1524 1524 1524 1523 1522 1521 1520 1519
1506 1507 1508 1509 1510 1512 1513 1514 1515 1516 1516 1517 1518 1518 1519 1519 1519 1520 1520 1521 1521 1521 1522 1522 1522 1522 1523 1523 1523 1523 1524 1524 1524 1525 1525 1525 1525 1524 1523 1522 1521 1520 1520
1507 1508 1509 1511 1512 1513 1514 1515 1516 1516 1517 1518 1518 1519 1519 1519 1519 1520 1520 1520 1521 1521 1521 1521 1521 1522 1522 1522 1523 1523 1523 1524 1524 1525 1525 1525 1525 1524 1523 1522 1522 1521 1521
1509 1510 1511 1512 1513 1514 1515 1516 1516 1517 1518 1518 1518 1519 1519 1519 1520 1520 1520 1520 1520 1520 1520 1521 1521 1521 1521 1522 1522 1522 1523 1523 1524 1525 1525 1525 1525 1524 1524 1523 1522 1522 1521
1510 1511 1512 1513 1514 1515 1516 1517 1517 1518 1518 1519 1519 1519 1519 1519 1519 1520 1520 1520 1520 1520 1520 1520 1520 1520 1520 1521 1521 1521 1522 1523 1524 1524 1525 1525 1524 1524 1524 1523 1523 1523 1522
1511 1512 1513 1514 1515 1516 1517 1518 1518 1519 1519 1519 1519 1519 1519 1519 1519 1519 1519 1519 1519 1519 1519 1519 1519 1519 1520 1520 1520 1520 1521 1522 1523 1524 1525 1525 1524 1524 1524 1523 1523 1523 1523
1513 1514 1514 1515 1516 1517 1518 1518 1519 1519 1519 1520 1520 1520 1520 1519 1519 1519 1519 1519 1519 1518 1518 1518 1518 1518 1519 1519 1519 1519 1520 1521 1522 1523 1524 1524 1524 1524 1524 1523 1523 1523 1523
1515 1515 1516 1517 1517 1518 1518 1519 1520 1520 1520 1520 1520 1520 1520 1520 1519 1519 1518 1519 1518 1518 1517 1517 1517 1517 1518 1518 1518 1519 1519 1520 1522 1523 1523 1523 1524 1524 1524 1523 1523 1524 1524
1516 1517 1518 1519 1519 1520 1520 1520 1520 1520 1521 1520 1520 1520 1520 1520 1520 1519 1519 1519 1518 1517 1516 1516 1516 1516 1517 1517 1518 1518 1519 1519 1521 1522 1522 1523 1523 1523 1523 1523 1523 1524 1524
1517 1518 1519 1520 1520 1521 1522 1521 1521 1521 1521 1521 1521 1521 1521 1521 1521 1520 1519 1518 1517 1517 1516 1516 1516 1516 1516 1517 1517 1518 1518 1519 1520 1521 1521 1521 1522 1523 1523 1523 1523 1524 1524
1518 1519 1520 1521 1522 1522 1522 1522 1522 1523 1522 1522 1522 1521 1521 1520 1520 1520 1519 1518 1517 1516 1516 1515 1515 1516 1516 1517 1517 1517 1517 1518 1519 1520 1520 1520 1521 1522 1522 1523 1523 1524 1524
1519 1520 1521 1522 1522 1522 1523 1523 1523 1523 1523 1522 1522 1522 1521 1520 1520 1519 1519 1518 1517 1516 1516 1515 1515 1515 1516 1516 1516 1517 1517 1518 1518 1518 1519 1520 1520 1521 1522 1522 1523 1524 1525
1519 1520 1521 1522 1522 1522 1523 1523 1523 1523 1523 1522 1521 1521 1521 1520 1519 1518 1518 1517 1517 1516 1516 1515 1514 1514 1515 1515 1515 1515 1515 1516 1517 1517 1518 1519 1519 1520 1521 1522 1523 1524 1525
1519 1520 1521 1522 1522 1523 1523 1523 1523 1523 1523 1522 1521 1521 1521 1520 1519 1518 1517 1516 1516 1515 1515 1514 1514 1514 1514 1514 1514 1514 1514 1515 1516 1516 1517 1517 1518 1519 1520 1521 1522 1523 1524
1518 1520 1521 1522 1522 1523 1523 1523 1523 1523 1523 1522 1521 1521 1520 1519 1518 1517 1516 1516 1515 1515 1514 1514 1513 1513 1513 1513 1513 1513 1513 1514 1515 1515 1516 1516 1517 1518 1519 1521 1522 1523 1524
1519 1520 1521 1522 1522 1522 1522 1522 1523 1523 1522 1522 1521 1521 1520 1519 1518 1517 1516 1515 1515 1514 1513 1513 1513 1513 1513 1513 1513 1513 1513 1513 1514 1514 1515 1515 1516 1517 1518 1520 1521 1522 1523
1518 1520 1520 1521 1522 1522 1522 1522 1523 1523 1522 1522 1521 1520 1519 1518 1517 1516 1515 1515 1514 1513 1512 1512 1512 1512 1512 1512 1512 1512 1512 1512 1513 1513 1514 1515 1515 1516 1517 1519 1520 1521 1523
1518 1520 1520 1521 1521 1521 1522 1522 1522 1522 1522 1522 1521 1520 1519 1518 1517 1516 1515 1514 1513 1512 1512 1511 1511 1511 1511 1511 1511 1511 1512 1512 1512 1512 1513 1514 1514 1515 1516 1518 1519 1520 1522
1518 1519 1520 1520 1521 1521 1521 1522 1522 1522 1522 1522 1521 1520 1519 1518 1516 1515 1514 1514 1513 1512 1511 1511 1510 1510 1511 1511 1511 1511 1511 1511 1511 1512 1512 1513 1514 1515 1516 1517 1518 1520 1521
1517 1518 1519 1520 1520 1520 1521 1521 1521 1522 1522 1521 1520 1520 1519 1517 1516 1515 1514 1513 1512 1511 1511 1510 1510 1510 1510 1511 1511 1511 1511 1512 1511 1512 1512 1512 1513 1514 1515 1516 1517 1519 1520
1516 1518 1519 1519 1520 1520 1521 1521 1521 1521 1521 1521 1520 1519 1519 1517 1516 1515 1514 1513 1512 1512 1511 1510 1510 1510 1510 1510 1511 1511 1511 1511 1511 1512 1512 1512 1513 1513 1514 1515 1516 1518 1519
1516 1517 1518 1519 1520 1520 1520 1521 1521 1521 1521 1521 1520 1519 1519 1518 1516 1515 1514 1513 1512 1512 1511 1510 1510 1510 1510 1510 1510 1511 1511 1511 1511 1511 1512 1512 1513 1513 1513 1514 1515 1516 1517
1515 1516 1517 1519 1519 1520 1520 1520 1521 1521 1521 1521 1520 1519 1519 1518 1517 1515 1514 1513 1512 1512 1511 1510 1510 1509 1509 1509 1509 1510 1510 1511 1511 1511 1511 1512 1512 1512 1513 1513 1514 1515 1516
1514 1515 1517 1518 1519 1519 1520 1520 1521 1521 1520 1520 1520 1519 1518 1518 1517 1516 1515 1513 1512 1512 1511 1510 1510 1509 1509 1509 1509 1509 1510 1510 1510 1511 1511 1511 1511 1512 1512 1513 1513 1514 1516